Location: Hohenfelde
(53.8441°N, 9.6220°E)
Time: 12:05:51
(UTC+00:00)

Cosmos 1238 Rocket - Pass Details

Date: 14 July 2020
Orbit: 374 x 1030 km, 82.9° (Epoch: 12 August)

Event Time Altitude Azimuth Distance (km) Brightness Sun altitude
Exits shadow 00:50:07 16° 215° (SW) 1,899 4.9 -12.4°
Maximum altitude 00:53:58 48° 285° (WNW) 910 3.9 -12.2°
Drops below altitude 10° 00:58:12 10° 0° (N) 1,961 6.8 -12.0°
Sets 01:00:17 0° 7° (N) 2,767 8.1 -11.9°
